Location: Newark
(31.5350°N, 35.0986°E)
Time: 15:34:33
(UTC+00:00)

Explorer 7 - Pass Details

Date: 19 October 2019
Orbit: 485 x 680 km, 50.3° (Epoch: 21 November)

Event Time Altitude Azimuth Distance (km) Brightness Sun altitude
Rises 16:43:12 0° 304° (NW) 2,687 11.3 -21.9°
Reaches altitude 10° 16:45:28 10° 297° (WNW) 1,825 10.4 -22.4°
Maximum altitude 16:49:21 39° 228° (SW) 872 8.1 -23.2°
Enters shadow 16:51:05 27° 180° (S) 1,145 8.4 -23.6°
Drops below altitude 10° 16:53:27 10° 159° (SSE) 1,933 - -24.1°
Sets 16:55:55 0° 152° (SSE) 2,869 - -24.6°
